Home   Weather   Halton Hills   Past weeks

Flag for Canada Past Weather in Halton Hills, Ontario, Canada — Yesterday and Last 2 Weeks

Now
54 °F

Clear.


Feels Like: 50 °F
Forecast: 46 / 62 °F
Wind: 10 mph from Southwest

Location: Toronto Pearson International Airport

Current Time: Sep 27, 2016 at 3:10:50 AM

Latest Report: Sep 27, 2016 at 2:00 AM


Visibility: 15 mi

Pressure: 29.83 "Hg

Humidity: 77%

Dew Point: 46 °F

Location of Halton HillsLocation

Past Weather in Halton Hills — Graph

°F

Halton Hills Temperature Yesterday

Maximum temperature yesterday: 64 °F (at 11:00 AM)
Minimum temperature yesterday: 57 °F (at 12:00 AM)
Average temperature yesterday: 60 °F

High & Low Weather Summary for the Past Weeks

 TemperatureHumidityPressure
High84 °F (Sep 22, 3:00 PM)94% (Sep 17, 2:00 AM)30.37 "Hg (Sep 17, 2:00 AM)
Low48 °F (Sep 24, 5:00 AM)22% (Sep 20, 7:00 PM)29.81 "Hg (Sep 26, 3:00 PM)
Average66 °F66%30.10 "Hg
* Reported Sep 12 2:00 AM — Sep 27 2:00 AM, Halton Hills, Weather by CustomWeather, © 2016

Note: Actual official high and low records may vary slightly from our data, if they occured in-between our weather recording intervals... More about our weather records

Advertising

Halton Hills Weather History for the Previous 24 Hours

Scroll right to see more
 ConditionsComfort  
Time TempWeatherWind HumidityBarometerVisibility
2:00 AM
Tue, Sep 27
54 °FClear.10 mph77%29.83 "Hg15 mi
1:00 AM54 °FClear.9 mph77%29.84 "Hg15 mi
12:00 AM55 °FPassing clouds.10 mph77%29.85 "Hg15 mi
11:00 PM
Mon, Sep 26
57 °FPassing clouds.10 mph77%29.85 "Hg15 mi
10:00 PM57 °FPassing clouds.9 mph82%29.87 "Hg15 mi
9:00 PM57 °FPassing clouds.10 mph88%29.87 "Hg15 mi
8:00 PM57 °FPassing clouds.6 mph88%29.85 "Hg15 mi
7:00 PM59 °FBroken clouds.7 mph82%29.84 "Hg15 mi
6:00 PM59 °FPartly sunny.7 mph77%29.84 "Hg15 mi
5:00 PM64 °FMostly cloudy.7 mph88%29.82 "Hg15 mi
4:00 PM64 °FMostly cloudy.8 mph88%29.83 "Hg15 mi
3:00 PM64 °FSprinkles. More clouds than sun.6 mph94%29.81 "Hg10 mi
1:00 PM61 °FRain showers. Fog.6 mph94%29.86 "Hg3 mi
12:00 PM61 °FLots of rain. Overcast.9 mph88%29.89 "Hg1 mi
11:52 AM63 °FLots of rain. Overcast.10 mph77%29.88 "Hg1 mi
11:00 AM64 °FMostly cloudy.8 mph68%29.88 "Hg15 mi
10:00 AM63 °FMore clouds than sun.8 mph68%29.90 "Hg15 mi
9:00 AM61 °FCloudy.8 mph72%29.92 "Hg15 mi
8:00 AM59 °FBroken clouds.10 mph72%29.94 "Hg15 mi
7:00 AM57 °FPartly cloudy.9 mph72%29.96 "Hg15 mi
6:00 AM57 °FPassing clouds.6 mph67%29.98 "Hg15 mi
5:00 AM57 °FPassing clouds.6 mph67%29.99 "Hg15 mi
4:00 AM57 °FOvercast.6 mph67%30.03 "Hg15 mi
3:00 AM59 °FOvercast.7 mph63%30.05 "Hg15 mi
Weather by CustomWeather, © 2016

See weather overviewHow to use our weather pages